This is the latest recevied weather packets stored in our database for station/object KE8ZLU. If no packets are shown the sender has not sent any weather packets the latest 10 day(s).
| Time | Temp. | Humidity | Pressure | Rain* | Wind** | Luminosity | Snow |
|---|---|---|---|---|---|---|---|
| 1778206843 | 8.33° C | 73% | 1013 hPa | 0 mm | - | 0 W/m² | - |
| 1778206538 | 8.33° C | 72% | 1013 hPa | 0 mm | - | 0 W/m² | - |
| 1778206234 | 7.78° C | 71% | 1012.8 hPa | 0 mm | - | 0 W/m² | - |
| 1778205932 | 7.78° C | 72% | 1013 hPa | 0 mm | - | 0 W/m² | - |
| 1778205630 | 7.78° C | 72% | 1012.9 hPa | 0 mm | - | 0 W/m² | - |
| 1778205327 | 7.78° C | 72% | 1013.1 hPa | 0 mm | - | 0 W/m² | - |
| 1778205024 | 8.33° C | 67% | 1013 hPa | 0 mm | - | 0 W/m² | - |
| 1778204721 | 8.33° C | 67% | 1012.6 hPa | 0 mm | - | 0 W/m² | - |
| 1778204417 | 8.33° C | 67% | 1012.8 hPa | 0 mm | - | 0 W/m² | - |
| 1778204113 | 8.89° C | 66% | 1012.5 hPa | 0 mm | - | 0 W/m² | - |
| 1778203810 | 8.89° C | 65% | 1012.4 hPa | 0 mm | - | 0 W/m² | - |
| 1778203507 | 8.89° C | 64% | 1012.6 hPa | 0 mm | - | 0 W/m² | - |
| 1778203204 | 9.44° C | 64% | 1012.5 hPa | 0 mm | - | 0 W/m² | - |
| 1778202903 | 9.44° C | 63% | 1012.4 hPa | 0 mm | - | 0 W/m² | - |
| 1778202600 | 10° C | 62% | 1012.5 hPa | 0 mm | - | 0 W/m² | - |
| 1778202297 | 10° C | 61% | 1012.9 hPa | 0 mm | - | 0 W/m² | - |
| 1778201994 | 10° C | 59% | 1012.8 hPa | 0 mm | - | 0 W/m² | - |
| 1778201690 | 10.56° C | 57% | 1012.8 hPa | 0 mm | - | 0 W/m² | - |
| 1778201387 | 10.56° C | 54% | 1012.6 hPa | 0 mm | - | 2 W/m² | - |
| 1778201083 | 10.56° C | 54% | 1012.6 hPa | 0 mm | - | 2 W/m² | - |
| 1778200780 | 10.56° C | 53% | 1012.4 hPa | 0 mm | - | 2 W/m² | - |
| 1778200477 | 10.56° C | 53% | 1012.5 hPa | 0 mm | - | 2 W/m² | - |
| 1778200174 | 11.11° C | 52% | 1012.4 hPa | 0 mm | - | 3 W/m² | - |
| 1778199871 | 11.11° C | 51% | 1012.5 hPa | 0 mm | - | 6 W/m² | - |
| 1778199566 | 10.56° C | 50% | 1012.4 hPa | 0 mm | - | 4 W/m² | - |
* Rain latest hour (hover to see other rain measurements)
** Current wind speed in m/s (hover to see current wind gust speed)